EN

Hourly Weather Allondrelle-la-Malmaison

Today, 28 January, Thursday

Time Temperature Precipitation Wind Pressure Humidity
00:00 +2°C° 0 mm 2 mps 733 mmHg 98%
01:00 +3°C° 0.3 mm 2 mps 732 mmHg 98%
02:00 +3°C° 0.3 mm 2 mps 731 mmHg 99%
03:00 +3°C° 0.3 mm 2 mps 730 mmHg 99%
04:00 +4°C° 1.9 mm 2 mps 729 mmHg 99%
05:00 +3°C° 1.9 mm 3 mps 729 mmHg 99%
06:00 +3°C° 0 mm 3 mps 728 mmHg 98%
07:00 +4°C° 2.2 mm 4 mps 727 mmHg 98%
08:00 +6°C° 2.2 mm 5 mps 727 mmHg 97%
09:00 +6°C° 2.2 mm 7 mps 726 mmHg 97%
10:00 +8°C° 0.7 mm 7 mps 726 mmHg 95%
11:00 +7°C° 0.7 mm 8 mps 726 mmHg 94%
12:00 +9°C° 0.7 mm 8 mps 726 mmHg 93%
13:00 +9°C° 0.1 mm 8 mps 726 mmHg 92%
14:00 +9°C° 0.1 mm 8 mps 727 mmHg 92%
15:00 +9°C° 0.1 mm 8 mps 727 mmHg 91%
16:00 +9°C° 0.1 mm 8 mps 727 mmHg 91%
17:00 +8°C° 0.1 mm 7 mps 728 mmHg 91%
18:00 +8°C° 0.1 mm 7 mps 728 mmHg 91%
19:00 +8°C° 0.1 mm 6 mps 728 mmHg 92%
20:00 +7°C° 0.1 mm 5 mps 728 mmHg 93%
21:00 +7°C° 0.1 mm 4 mps 728 mmHg 93%
22:00 +7°C° 0.2 mm 4 mps 727 mmHg 95%
23:00 +7°C° 0.2 mm 5 mps 727 mmHg 96%

Tomorrow, 29 January, Friday

Time Temperature Precipitation Wind Pressure Humidity
00:00 +7°C° 0.2 mm 5 mps 726 mmHg 97%
01:00 +8°C° 2 mm 6 mps 725 mmHg 97%
02:00 +8°C° 2 mm 7 mps 724 mmHg 96%
03:00 +8°C° 2 mm 7 mps 723 mmHg 96%
04:00 +7°C° 1.1 mm 8 mps 723 mmHg 93%
05:00 +7°C° 1.1 mm 8 mps 723 mmHg 90%
06:00 +7°C° 1.1 mm 9 mps 723 mmHg 87%
07:00 +6°C° 0 mm 9 mps 724 mmHg 87%
08:00 +6°C° 0 mm 8 mps 724 mmHg 87%
09:00 +6°C° 0 mm 8 mps 725 mmHg 87%
10:00 +6°C° 0.2 mm 8 mps 725 mmHg 85%
11:00 +6°C° 0.2 mm 9 mps 725 mmHg 82%
12:00 +6°C° 0.2 mm 9 mps 725 mmHg 80%
13:00 +6°C° 0.6 mm 9 mps 724 mmHg 84%
14:00 +5°C° 0.6 mm 9 mps 724 mmHg 87%
15:00 +3°C° 0.6 mm 9 mps 724 mmHg 91%
16:00 +3°C° 0.3 mm 9 mps 724 mmHg 89%
17:00 +5°C° 0.3 mm 8 mps 725 mmHg 88%
18:00 +5°C° 0.3 mm 8 mps 726 mmHg 86%
19:00 +5°C° 0.1 mm 7 mps 726 mmHg 88%
20:00 +4°C° 0.1 mm 7 mps 726 mmHg 89%
21:00 +4°C° 0.1 mm 6 mps 727 mmHg 91%
22:00 +4°C° 0.1 mm 7 mps 727 mmHg 91%
23:00 +4°C° 0.1 mm 7 mps 726 mmHg 91%

Day after tomorrow, 30 January, Saturday

Time Temperature Precipitation Wind Pressure Humidity
00:00 +4°C° 0.1 mm 7 mps 726 mmHg 92%
01:00 +4°C° 0 mm 6 mps 726 mmHg 92%
02:00 +4°C° 0 mm 6 mps 725 mmHg 92%
03:00 +3°C° 0 mm 6 mps 725 mmHg 93%
04:00 +4°C° 0.3 mm 4 mps 724 mmHg 93%
05:00 +4°C° 0.3 mm 3 mps 723 mmHg 93%
06:00 +6°C° 0.3 mm 1 mps 722 mmHg 94%
07:00 +5°C° 1.3 mm 2 mps 722 mmHg 95%
08:00 +5°C° 1.3 mm 2 mps 721 mmHg 96%
09:00 +4°C° 1.3 mm 3 mps 720 mmHg 96%
10:00 +4°C° 1.3 mm 3 mps 720 mmHg 97%
11:00 +6°C° 1.3 mm 2 mps 720 mmHg 97%
12:00 +6°C° 1.3 mm 2 mps 720 mmHg 97%
13:00 +6°C° 0.2 mm 2 mps 719 mmHg 96%
14:00 +6°C° 0.2 mm 2 mps 719 mmHg 95%
15:00 +6°C° 0.2 mm 2 mps 719 mmHg 94%
16:00 +5°C° 0 mm 2 mps 720 mmHg 94%
17:00 +5°C° 0 mm 2 mps 720 mmHg 94%
18:00 +3°C° 0 mm 3 mps 720 mmHg 94%
19:00 +2°C° 0 mm 3 mps 721 mmHg 93%
20:00 +1°C° 0 mm 4 mps 721 mmHg 92%
21:00 0°C° 0 mm 4 mps 721 mmHg 91%
22:00 0°C° 0.1 mm 4 mps 722 mmHg 91%
23:00 0°C° 0.1 mm 4 mps 722 mmHg 92%

31 January, Sunday

Time Temperature Precipitation Wind Pressure Humidity
00:00 0°C° 0.1 mm 3 mps 722 mmHg 92%
01:00 0°C° 0.1 mm 3 mps 722 mmHg 92%
02:00 0°C° 0.1 mm 3 mps 722 mmHg 91%
03:00 0°C° 0.1 mm 3 mps 722 mmHg 91%
04:00 0°C° 0 mm 3 mps 723 mmHg 91%
05:00 0°C° 0 mm 3 mps 723 mmHg 91%
06:00 0°C° 0 mm 3 mps 723 mmHg 91%
07:00 0°C° 0.1 mm 3 mps 724 mmHg 92%
08:00 -1°C° 0.1 mm 3 mps 724 mmHg 92%
09:00 -1°C° 0.1 mm 3 mps 724 mmHg 93%
10:00 0°C° 0.1 mm 3 mps 724 mmHg 93%
11:00 0°C° 0.1 mm 3 mps 724 mmHg 93%
12:00 0°C° 0.1 mm 3 mps 724 mmHg 93%
13:00 0°C° 0 mm 3 mps 724 mmHg 94%
14:00 0°C° 0 mm 3 mps 723 mmHg 94%
15:00 +2°C° 0 mm 2 mps 723 mmHg 94%
16:00 +1°C° 0 mm 3 mps 722 mmHg 95%
17:00 +1°C° 0 mm 3 mps 722 mmHg 95%
18:00 +1°C° 0 mm 3 mps 722 mmHg 95%
19:00 +1°C° 0 mm 3 mps 721 mmHg 95%
20:00 -1°C° 0 mm 4 mps 721 mmHg 95%
21:00 -1°C° 0 mm 4 mps 721 mmHg 95%
22:00 -1°C° 0 mm 4 mps 720 mmHg 95%
23:00 -1°C° 0 mm 4 mps 720 mmHg 94%

1 February, Monday

Time Temperature Precipitation Wind Pressure Humidity
00:00 -1°C° 0 mm 4 mps 719 mmHg 94%
01:00 -1°C° 0 mm 4 mps 719 mmHg 94%
02:00 0°C° 0 mm 3 mps 719 mmHg 94%
03:00 0°C° 0 mm 3 mps 719 mmHg 94%
04:00 +1°C° 0.2 mm 3 mps 720 mmHg 94%
05:00 +1°C° 0.2 mm 3 mps 720 mmHg 95%
06:00 +2°C° 0.2 mm 2 mps 720 mmHg 95%
07:00 +2°C° 0.1 mm 2 mps 721 mmHg 95%
08:00 +2°C° 0.1 mm 2 mps 722 mmHg 95%
09:00 +3°C° 0.1 mm 1 mps 722 mmHg 95%
10:00 +4°C° 0.1 mm 1 mps 723 mmHg 95%
11:00 +4°C° 0.1 mm 1 mps 723 mmHg 95%
12:00 +4°C° 0.1 mm 1 mps 724 mmHg 95%
13:00 +4°C° 0 mm 1 mps 724 mmHg 94%
14:00 +5°C° 0 mm 1 mps 725 mmHg 94%
15:00 +4°C° 0 mm 0 mps 725 mmHg 94%
16:00 +4°C° 0 mm 0 mps 726 mmHg 94%
17:00 +3°C° 0 mm 0 mps 727 mmHg 95%
18:00 +3°C° 0 mm 0 mps 728 mmHg 95%
19:00 +3°C° 0 mm 0 mps 728 mmHg 95%
20:00 +3°C° 0 mm 0 mps 729 mmHg 95%
21:00 +3°C° 0 mm 0 mps 730 mmHg 94%
22:00 +3°C° 0 mm 0 mps 730 mmHg 94%
23:00 +3°C° 0 mm 0 mps 731 mmHg 94%

2 February, Tuesday

Time Temperature Precipitation Wind Pressure Humidity
00:00 +3°C° 0 mm 0 mps 731 mmHg 94%
01:00 +4°C° 0 mm 1 mps 731 mmHg 95%
02:00 +4°C° 0 mm 1 mps 732 mmHg 96%
03:00 +4°C° 0 mm 1 mps 732 mmHg 96%
04:00 +3°C° 0 mm 2 mps 732 mmHg 96%
05:00 +3°C° 0 mm 2 mps 731 mmHg 97%
06:00 +3°C° 0 mm 2 mps 731 mmHg 97%
07:00 +2°C° 0.6 mm 3 mps 731 mmHg 97%
08:00 +3°C° 0.6 mm 3 mps 731 mmHg 97%
09:00 +3°C° 0.6 mm 4 mps 730 mmHg 96%
10:00 +4°C° 1.3 mm 4 mps 729 mmHg 96%
11:00 +5°C° 1.3 mm 5 mps 729 mmHg 97%
12:00 +5°C° 1.3 mm 5 mps 728 mmHg 97%
13:00 +5°C° 1.7 mm 6 mps 728 mmHg 96%
14:00 +7°C° 1.7 mm 6 mps 727 mmHg 96%
15:00 +8°C° 1.7 mm 7 mps 727 mmHg 95%
16:00 +8°C° 0.7 mm 7 mps 727 mmHg 95%
17:00 +9°C° 0.7 mm 7 mps 727 mmHg 95%
18:00 +9°C° 0.7 mm 8 mps 728 mmHg 95%
19:00 +9°C° 1.1 mm 8 mps 728 mmHg 95%
20:00 +9°C° 1.1 mm 7 mps 728 mmHg 95%
21:00 +9°C° 1.1 mm 7 mps 728 mmHg 95%
22:00 +8°C° 1 mm 6 mps 729 mmHg 95%
23:00 +8°C° 1 mm 5 mps 729 mmHg 95%
Show more